EW5716 Weather Reports


time (UTC)temp
F
wind
direction
speed
knots
gust
knots
rain 1hr
in
rain 24hr
in
rain mn
in
humidity
%
barometer
mb
20260506201600 42 320 0.9 3.5 0.02 0.75 0.62 95 1004.1
20260506200059 42 338 0.9 2.6 0.01 0.74 0.61 95 1004.2
20260506200002 42 336 0.9 2.6 0.01 0.74 0.61 95 1004.1
20260506194606 42 15 1.7 4.3 0.00 0.74 0.60 95 1004.0
20260506193101 42 333 0.9 4.3 0.00 0.74 0.60 95 1004.1
20260506191559 43 333 2.6 7.0 0.01 0.74 0.60 96 1004.1
20260506190100 42 5 2.6 7.8 0.03 0.74 0.60 96 1004.0
20260506184600 42 340 0.9 3.5 0.05 0.74 0.60 96 1004.0
20260506183106 41 11 1.7 5.2 0.06 0.74 0.60 95 1004.3
20260506181602 42 342 0.9 3.5 0.07 0.73 0.59 95 1004.4
20260506180101 42 327 0.9 4.3 0.08 0.71 0.56 95 1004.3
20260506180002 42 327 0.9 4.3 0.08 0.71 0.56 95 1004.4
20260506174602 41 349 0.9 2.6 0.08 0.69 0.55 95 1004.6
20260506173101 41 5 0.0 4.3 0.09 0.68 0.54 95 1005.0
20260506171604 41 323 1.7 5.2 0.09 0.66 0.52 95 1004.9
20260506170107 42 5 1.7 10.4 0.07 0.63 0.49 95 1004.7
20260506170002 42 26 0.9 10.4 0.07 0.63 0.49 95 1004.7
20260506164603 43 333 2.6 7.8 0.06 0.61 0.47 95 1004.9
20260506164503 43 328 1.7 5.2 0.06 0.61 0.47 95 1004.9
20260506163106 44 348 0.9 5.2 0.05 0.59 0.45 95 1004.3
20260506161607 44 342 0.9 3.5 0.04 0.56 0.43 95 1004.3
20260506160059 45 351 0.0 3.5 0.05 0.56 0.42 95 1004.4
20260506160002 45 351 0.9 3.5 0.05 0.56 0.42 95 1004.3
20260506154613 45 351 0.9 3.5 0.04 0.55 0.41 95 1004.4
20260506153059 45 18 0.9 2.6 0.04 0.54 0.40 95 1004.7
20260506151600 46 19 0.9 4.3 0.04 0.53 0.39 95 1005.0
20260506150100 46 26 0.9 4.3 0.02 0.51 0.37 95 1004.8
20260506150002 46 26 1.7 4.3 0.02 0.51 0.37 95 1004.9
20260506144604 46 74 0.0 2.6 0.04 0.51 0.37 96 1004.8
20260506144501 46 72 0.0 2.6 0.04 0.51 0.37 96 1004.8
20260506143059 45 30 0.9 5.2 0.04 0.50 0.36 95 1004.9
20260506141604 46 32 0.0 2.6 0.05 0.49 0.35 95 1005.2
20260506140122 45 75 1.7 3.5 0.06 0.49 0.35 95 1005.2
20260506140000 45 74 0.9 3.5 0.06 0.49 0.35 95 1005.1
20260506134700 46 18 2.6 5.2 0.05 0.47 0.33 95 1005.9
20260506133107 45 26 0.9 3.5 0.05 0.46 0.32 95 1005.2
20260506131559 45 9 0.9 2.6 0.03 0.44 0.30 95 1005.5
20260506130100 45 9 0.0 2.6 0.02 0.43 0.28 95 1005.5
20260506130001 45 9 0.0 2.6 0.02 0.43 0.28 95 1005.5
20260506124602 45 5 0.9 7.0 0.01 0.42 0.28 94 1005.8
20260506123100 46 348 0.9 3.5 0.00 0.41 0.27 94 1006.1
20260506121600 47 34 0.0 5.2 0.00 0.41 0.27 94 1006.3
20260506120059 47 12 0.0 0.0 0.01 0.41 0.27 94 1005.9
20260506120001 47 12 0.0 0.0 0.01 0.41 0.27 94 1005.9
20260506113102 47 12 0.0 0.0 0.01 0.41 0.27 95 1005.8
20260506111606 46 12 0.0 0.0 0.01 0.41 0.27 94 1005.7
20260506110058 46 12 0.0 1.7 0.00 0.40 0.26 94 1005.8
20260506110002 46 12 0.0 3.5 0.00 0.40 0.26 94 1005.7
20260506103102 46 355 0.0 0.0 0.01 0.40 0.26 94 1005.8
20260506101559 47 20 1.7 4.3 0.01 0.40 0.26 94 1005.8
20260506100002 47 17 0.0 3.5 0.01 0.40 0.26 94 1006.0
20260506094559 47 19 0.9 1.7 0.00 0.39 0.25 94 1006.7
20260506093102 47 13 0.0 4.3 0.00 0.39 0.25 94 1006.2
20260506091601 48 348 0.0 3.5 0.02 0.39 0.25 94 1006.2
20260506090058 48 14 1.7 3.5 0.02 0.39 0.25 94 1006.3
20260506090001 48 14 1.7 3.5 0.02 0.39 0.25 94 1006.3
20260506084603 48 9 0.0 2.6 0.02 0.39 0.25 94 1006.4
20260506083100 49 9 0.0 1.7 0.02 0.39 0.25 94 1006.9
20260506081601 49 360 0.0 5.2 0.00 0.37 0.23 94 1006.2
20260506073059 50 14 0.0 0.0 0.03 0.37 0.23 94 1006.1
20260506071559 50 14 0.0 0.0 0.03 0.37 0.23 94 1006.2
20260506061613 50 14 0.0 0.0 0.04 0.34 0.20 94 1006.2
20260506050104 51 16 0.0 0.0 0.14 0.28 0.15 93 1006.9
20260506044639 50 15 0.0 4.3 0.17 0.27 0.13 92 1006.1
20260506043059 51 14 0.9 4.3 0.17 0.25 0.11 92 1006.8
20260506043026 51 19 1.7 4.3 0.17 0.25 0.11 92 1006.8
20260506041559 51 333 1.7 7.0 0.10 0.18 0.04 91 1007.0
20260506040059 53 14 1.7 5.2 0.06 0.14 0.00 90 1006.1
20260506040004 53 15 1.7 5.2 0.06 0.14 0.00 90 1006.1
20260506034600 54 344 0.9 11.3 0.03 0.10 0.10 89 1005.8
20260506033159 56 310 0.9 4.3 0.01 0.08 0.08 85 1005.4
20260506031559 57 259 0.0 2.6 0.01 0.08 0.08 84 1005.2
20260506030100 58 218 0.0 4.3 0.01 0.08 0.08 81 1005.2
20260506030001 58 218 0.0 4.3 0.01 0.08 0.08 81 1005.1
20260506024602 59 254 0.0 1.7 0.00 0.07 0.07 76 1005.1
20260506023102 59 255 0.0 6.1 0.00 0.07 0.07 76 1005.1
20260506021610 59 206 1.7 6.1 0.00 0.07 0.07 76 1005.3
20260506020058 58 194 0.0 2.6 0.00 0.07 0.07 78 1004.9
20260506020001 58 194 0.0 2.6 0.00 0.07 0.07 77 1004.9
20260506014603 58 184 0.0 4.3 0.00 0.07 0.07 78 1004.6
20260506013105 58 210 0.0 3.5 0.00 0.07 0.07 79 1004.7
20260506011559 58 222 0.0 3.5 0.00 0.07 0.07 79 1004.8
20260506010117 58 221 0.0 6.1 0.00 0.07 0.07 80 1004.8
20260506010001 58 221 0.0 6.1 0.00 0.07 0.07 80 1004.8
20260506004606 58 213 0.0 7.0 0.00 0.07 0.07 81 1004.6
20260506001600 58 231 0.0 5.2 0.00 0.07 0.07 82 1004.3
20260506000100 58 243 0.9 7.8 0.00 0.07 0.07 82 1004.5
20260505234610 58 230 0.0 3.5 0.00 0.07 0.07 82 1004.1
20260505233100 58 202 0.9 6.1 0.00 0.07 0.07 83 1004.0
20260505231601 58 185 1.7 4.3 0.00 0.07 0.07 84 1003.7
20260505230001 57 293 0.0 2.6 0.00 0.07 0.07 85 1003.8
20260505224600 57 265 0.0 7.0 0.00 0.07 0.07 87 1003.5
20260505223059 57 223 0.9 6.1 0.00 0.07 0.07 88 1003.8
20260505221600 57 200 0.9 4.3 0.00 0.07 0.07 89 1003.6
20260505220059 57 206 0.0 2.6 0.00 0.07 0.07 87 1003.2
20260505220001 58 206 0.0 2.6 0.00 0.07 0.07 88 1003.1
20260505214624 58 295 0.0 1.7 0.00 0.07 0.07 88 1003.1
20260505213104 57 294 0.9 4.3 0.00 0.07 0.07 88 1003.2
20260505211559 57 286 0.9 3.5 0.01 0.07 0.07 88 1003.4
20260505210104 57 296 1.7 8.7 0.06 0.07 0.07 88 1003.4
20260505210001 57 272 2.6 8.7 0.06 0.07 0.07 88 1003.4
20260505204605 57 217 0.9 5.2 0.06 0.07 0.07 89 1002.9
20260505203100 58 303 0.9 4.3 0.07 0.07 0.07 88 1002.6